Location: Izdebno
(52.6670°N, 16.2170°E)
Time: 04:46:26
(UTC+02:00)

A-11 Canister half - Pass Details

Date: 10 February 2023
Orbit: 1526 x 1682 km, 47.3° (Epoch: 25 March)

Event Time Altitude Azimuth Distance (km) Brightness Sun altitude
Rises 07:28:26 0° 269° (W) 4,678 11.0 0.0°
Reaches altitude 10° 07:31:29 10° 266° (W) 3,696 10.5 0.5°
Maximum altitude 07:40:35 62° 189° (S) 1,706 9.5 1.7°
Drops below altitude 10° 07:49:52 10° 112° (ESE) 3,763 13.5 3.0°
Sets 07:53:00 0° 109° (ESE) 4,766 13.9 3.4°
